FW8647 Weather Reports


time (UTC)temp
F
wind
direction
speed
knots
gust
knots
rain 1hr
in
rain 24hr
in
rain mn
in
humidity
%
barometer
mb
20260506122413 45 219 0.0 0.0 0.00 0.14 0.14 99 1011.4
20260506121408 45 197 0.0 0.9 0.00 0.14 0.14 99 1011.7
20260506120403 46 206 0.0 0.0 0.00 0.14 0.14 99 1011.5
20260506115358 45 189 0.0 0.0 0.00 0.14 0.14 99 1011.4
20260506114358 45 191 0.0 0.0 0.00 0.14 0.14 99 1011.1
20260506113354 45 181 0.0 1.7 0.00 0.14 0.14 99 1011.2
20260506112354 45 124 0.0 0.0 0.00 0.14 0.14 99 1011.3
20260506111350 45 177 0.0 0.0 0.00 0.14 0.14 99 1010.8
20260506110349 45 187 0.0 0.0 0.00 0.14 0.14 99 1011.1
20260506105348 45 185 2.6 4.3 0.00 0.14 0.14 99 1010.8
20260506104344 45 192 1.7 1.7 0.00 0.14 0.14 99 1010.5
20260506103339 45 201 0.0 0.0 0.00 0.14 0.14 99 1010.4
20260506102334 45 201 1.7 2.6 0.00 0.14 0.14 99 1010.3
20260506101332 45 201 0.0 0.0 0.00 0.14 0.14 99 1010.3
20260506100329 45 201 0.0 0.0 0.00 0.14 0.14 99 1010.6
20260506095329 45 201 0.0 0.0 0.00 0.14 0.14 99 1010.6
20260506094325 46 201 0.0 0.0 0.00 0.14 0.14 99 1010.1
20260506093325 46 201 0.0 0.0 0.00 0.14 0.14 99 1009.8
20260506092321 45 201 0.0 0.9 0.00 0.14 0.14 99 1010.3
20260506091321 46 201 1.7 1.7 0.07 0.14 0.14 99 1010.6
20260506090316 46 201 0.0 0.0 0.00 0.13 0.13 99 1010.8
20260506085314 45 201 0.9 0.9 0.00 0.13 0.13 99 1011.0
20260506084314 45 201 0.0 0.9 0.05 0.13 0.13 99 1011.1
20260506083308 46 201 0.0 0.0 0.00 0.12 0.12 99 1010.8
20260506082307 46 201 2.6 2.6 0.00 0.12 0.12 99 1011.0
20260506081302 46 201 0.0 0.0 0.00 0.12 0.12 99 1011.1
20260506080301 46 202 0.0 0.0 0.00 0.12 0.12 99 1011.0
20260506073251 46 201 0.9 1.7 0.00 0.12 0.12 99 1011.1
20260506072246 46 202 0.0 0.0 0.00 0.12 0.12 99 1011.0
20260506071241 46 192 0.0 0.9 0.00 0.12 0.12 99 1010.9
20260506070241 46 195 1.7 1.7 0.00 0.12 0.12 99 1010.6
20260506062223 46 200 0.0 0.0 0.17 0.11 0.11 99 1010.7
20260506061223 0 0.0 0.0 0.00 0.00 0.00 1010.7
20260506060218 0 0.0 0.0 0.00 0.00 0.00 1010.8
20260506051208 0 0.0 0.0 0.00 0.00 0.00 1011.3
20260506050203 0 0.0 0.0 0.00 0.00 0.00 1011.6
20260506044202 0 0.0 0.0 0.00 0.00 0.00 1011.6
20260506043158 0 0.0 0.0 0.00 0.00 0.00 1011.9
20260506042154 46 175 0.9 2.6 0.07 0.01 0.01 98 1011.9
20260506041149 47 202 2.6 4.3 0.00 0.00 0.00 97 1011.9
20260506040149 47 202 2.6 4.3 0.00 0.00 0.00 97 1011.8
20260506035149 47 198 0.0 0.0 0.00 0.03 0.03 97 1011.8
20260506034149 47 198 0.0 0.0 0.00 0.03 0.03 97 1011.8
20260506033148 48 155 0.0 0.0 0.00 0.03 0.03 97 1011.9
20260506032148 48 159 0.0 0.0 0.00 0.03 0.03 96 1011.7
20260506031147 47 189 0.9 1.7 0.00 0.03 0.03 96 1011.7
20260506030143 48 193 0.0 0.0 0.00 0.03 0.03 95 1011.2
20260506025141 48 144 0.0 0.0 0.00 0.03 0.03 95 1011.1
20260506024141 48 175 0.0 0.0 0.00 0.03 0.03 95 1011.8
20260506023141 48 207 0.0 0.0 0.00 0.03 0.03 94 1011.7
20260506022141 48 230 0.0 0.0 0.00 0.03 0.03 94 1011.9
20260506021136 48 138 0.0 0.0 0.00 0.03 0.03 93 1011.6
20260506020137 48 197 0.0 0.0 0.00 0.03 0.03 92 1011.7
20260506015137 48 221 0.0 0.0 0.00 0.03 0.03 91 1011.7
20260506014136 48 144 0.0 0.0 0.00 0.03 0.03 88 1011.9
20260506013131 48 183 0.0 0.0 0.00 0.03 0.03 87 1011.5
20260506012129 49 161 0.0 0.0 0.00 0.03 0.03 85 1011.6
20260506011129 49 194 0.0 0.0 0.00 0.03 0.03 84 1011.4
20260506010124 49 192 0.0 0.0 0.00 0.03 0.03 84 1011.3
20260506005124 49 195 0.0 0.0 0.00 0.03 0.03 84 1011.0
20260506004124 49 210 0.0 0.0 0.00 0.03 0.03 82 1011.2
20260506003122 49 195 0.0 0.0 0.00 0.03 0.03 83 1011.0
20260506002120 49 202 0.0 0.0 0.00 0.03 0.03 83 1010.8
20260506001119 49 198 0.0 0.0 0.00 0.03 0.03 82 1010.7
20260506000119 49 204 0.0 0.0 0.00 0.03 0.03 82 1010.6
20260505235120 48 221 0.0 0.0 0.00 0.03 0.03 82 1010.6
20260505234119 49 258 0.0 0.0 0.00 0.03 0.03 82 1010.9
20260505233114 48 205 0.0 0.0 0.00 0.03 0.03 83 1011.0
20260505232114 49 196 0.0 0.0 0.00 0.03 0.03 83 1010.8
20260505231110 48 220 0.0 0.0 0.00 0.03 0.03 83 1010.9
20260505230109 49 223 0.0 0.0 0.00 0.03 0.03 83 1010.7
20260505225108 48 203 0.0 0.0 0.00 0.03 0.03 83 1010.7
20260505224107 48 222 0.0 0.0 0.00 0.03 0.03 84 1010.9
20260505223107 48 229 0.0 0.0 0.00 0.03 0.03 83 1010.9
20260505222105 48 289 0.0 0.9 0.00 0.03 0.03 84 1011.0
20260505221104 48 255 0.0 0.0 0.00 0.03 0.03 84 1010.8
20260505220100 48 234 0.0 0.0 0.00 0.03 0.03 84 1010.9
20260505215055 48 202 0.0 0.0 0.00 0.03 0.03 84 1010.9
20260505214055 48 225 0.0 0.0 0.00 0.03 0.03 84 1011.0
20260505213055 48 238 0.0 0.0 0.00 0.03 0.03 85 1011.0
20260505212055 48 284 0.9 1.7 0.00 0.03 0.03 84 1010.8
20260505211055 48 266 1.7 2.6 0.00 0.03 0.03 84 1010.8
20260505210054 48 263 3.5 5.2 0.00 0.03 0.03 83 1011.0
20260505205049 48 256 0.0 0.0 0.00 0.03 0.03 85 1010.9
20260505204044 48 282 0.0 0.9 0.00 0.03 0.03 84 1011.1
20260505203043 49 323 5.2 7.8 0.00 0.03 0.03 84 1010.9
20260505202040 49 282 0.0 1.7 0.00 0.03 0.03 85 1011.1
20260505201035 48 251 2.6 5.2 0.00 0.03 0.03 85 1010.9
20260505200036 49 263 0.0 1.7 0.00 0.03 0.03 85 1010.8
20260505195035 48 228 0.9 1.7 0.00 0.03 0.03 84 1010.7
20260505194033 49 240 2.6 4.3 0.00 0.03 0.03 84 1010.8
20260505193028 49 262 0.9 0.9 0.00 0.03 0.03 83 1010.6
20260505192024 49 254 2.6 4.3 0.12 0.03 0.03 79 1010.6
20260505191020 50 184 3.5 4.3 0.05 0.01 0.01 79 1010.6
20260505190016 51 255 0.0 0.0 0.00 0.00 0.00 75 1010.5
20260505185015 51 246 4.3 7.8 0.00 0.00 0.00 72 1010.4
20260505184015 53 282 5.2 7.0 0.00 0.00 0.00 68 1010.4
20260505183015 53 300 4.3 7.0 0.00 0.00 0.00 66 1010.2
20260505182014 54 317 4.3 6.1 0.00 0.00 0.00 65 1009.8
20260505181014 55 301 3.5 5.2 0.00 0.00 0.00 63 1009.5
20260505180014 55 193 2.6 4.3 0.00 0.00 0.00 62 1009.7
20260505175012 56 248 3.5 6.1 0.00 0.00 0.00 61 1009.5
20260505174010 56 325 3.5 7.8 0.00 0.00 0.00 62 1009.5
20260505173009 56 305 2.6 2.6 0.00 0.00 0.00 62 1008.9
20260505172008 56 183 2.6 5.2 0.00 0.00 0.00 66 1009.0
20260505171007 56 242 2.6 4.3 0.00 0.00 0.00 66 1008.8
20260505170006 56 271 3.5 5.2 0.00 0.00 0.00 67 1008.8
20260505165003 55 266 1.7 1.7 0.00 0.00 0.00 67 1008.7
20260505164004 55 223 2.6 4.3 0.00 0.00 0.00 68 1008.7
20260505163001 56 263 2.6 5.2 0.00 0.00 0.00 68 1008.8
20260505161959 56 328 4.3 6.1 0.00 0.00 0.00 68 1008.7
20260505160959 56 250 2.6 7.0 0.00 0.00 0.00 70 1008.7
20260505152957 56 336 4.3 6.1 0.00 0.00 0.00 73 1008.8
20260505151955 56 266 4.3 6.1 0.00 0.00 0.00 75 1008.0
20260505150954 56 281 3.5 5.2 0.00 0.00 0.00 75 1007.4
20260505124915 58 264 0.9 1.7 0.00 0.00 0.00 86 1005.7
20260505123913 58 233 2.6 4.3 0.00 0.00 0.00 85 1005.5